Weather observations for the past three days for
Hailey, Friedman Memorial Airport
Metric (Imperial)
Date Time (mdt) Wind (kph) Vis. (km) Weather Sky Cond. Temperature (ºC) Relative Humidity Wind Chill (°C) Heat Index (°C) Pressure Precipitation (cm)
Air Dwpt 6 hour altimeter (cm) sea level (mb) 1 hr 3 hr 6 hr
Max. Min.
04 17:47 E 19 16.09 Overcast BKN100 OVC120 19 -1 26% 75.59 0.0
04 16:47 SW 11 16.09 Partly Cloudy SCT100 23 -3 17% 75.59 0.0
04 15:47 NW 19 16.09 Partly Cloudy SCT100 22 -3 19% 75.62 0.0
04 14:47 SE 11 16.09 Partly Cloudy SCT100 22 -2 20% 75.69 0.0
04 13:47 SE 15 16.09 Partly Cloudy SCT120 21 -2 21% 75.77 0.0
04 12:47 SE 22 G 37 16.09 Partly Cloudy SCT120 21 -2 21% 75.79 0.0
04 11:47 SE 22 16.09 Partly Cloudy SCT120 20 -3 21% 75.84 0.0
04 10:50 Calm 16.09 Partly Cloudy SCT120 18 -4 22% 75.87 0.0
04 09:47 NW 15 16.09 Fair CLR 15 -2 31% 75.9 0.0
04 08:50 NW 19 16.09 Fair CLR 11 -2 41% 75.92 0.0
04 07:54 NW 19 G 33 16.09 Fair CLR 8 -3 46% 5 75.92 0.0
04 06:50 NW 15 16.09 Fair CLR 7 -3 49% 5 75.9 0.0
04 06:35 NW 19 16.09 Fair CLR 0 0 0% 75.87 0.0
04 06:15 NW 19 16.09 Fair CLR 0 0 0% 75.87 0.0
04 05:55 NW 20 G 28 16.09 Fair CLR 0 0 0% 75.87 0.0
04 05:35 NW 19 G 28 16.09 Fair CLR 0 0 0% 75.87 0.0
04 05:15 NW 17 16.09 Fair CLR 0 0 0% 75.9 0.0
04 04:55 NW 17 16.09 Fair CLR 0 0 0% 75.9 0.0
04 04:35 NW 15 16.09 Fair CLR 0 0 0% 75.92 0.0
04 04:15 NW 19 G 28 16.09 Fair CLR 0 0 0% 75.9 0.0
04 03:55 NW 17 16.09 Fair CLR 0 0 0% 75.92 0.0
04 03:35 NW 17 16.09 Fair CLR 0 0 0% 75.87 0.0
04 03:15 NW 19 16.09 Fair CLR 0 0 0% 75.9 0.0
04 02:55 NW 19 16.09 Fair CLR 0 0 0% 75.92 0.0
04 02:35 NW 20 16.09 Fair CLR 0 0 0% 75.92 0.0
04 02:15 NW 19 16.09 Fair CLR 0 0 0% 75.92 0.0
04 01:55 NW 22 16.09 Fair CLR 0 0 0% 75.95 0.0
04 01:35 NW 17 16.09 Fair CLR 0 0 0% 75.95 0.0
04 01:15 NW 17 16.09 Fair CLR 0 0 0% 75.95 0.0
04 00:55 NW 17 16.09 Fair CLR 0 0 0% 75.95 0.0
04 00:15 NW 15 16.09 Fair CLR 0 0 0% 75.95 0.0
03 23:55 NW 11 16.09 Fair CLR 0 0 0% 75.95 0.0
03 23:35 NW 13 16.09 Fair CLR 0 0 0% 75.95 0.0
03 23:15 NW 13 16.09 Fair CLR 0 0 0% 75.95 0.0
03 22:47 NW 9 16.09 Fair CLR 11 -2 41% 75.97 0.0
03 21:47 NW 11 16.09 Fair CLR 13 -2 36% 75.95 0.0
03 20:47 W 9 16.09 Fair CLR 16 -1 31% 75.9 0.0
03 19:47 N 11 16.09 Fair CLR 20 -3 21% 75.92 0.0
03 18:47 Calm 16.09 Fair CLR 20 -4 20% 75.97 0.0
03 17:47 NW 11 16.09 Partly Cloudy SCT110 20 -4 20% 76.02 0.0
03 16:47 W 17 16.09 Partly Cloudy SCT110 19 -4 21% 76.05 0.0
03 15:47 W 19 G 28 16.09 Fair CLR 21 -3 20% 76.1 0.0
03 14:47 SE 9 16.09 Fair CLR 23 -6 14% 76.1 0.0
03 13:47 S 11 16.09 Fair CLR 21 -6 16% 76.17 0.0
03 12:47 SE 20 16.09 Fair CLR 21 -5 17% 76.23 0.0
03 11:47 SE 19 G 31 16.09 Fair CLR 19 -6 18% 76.28 0.0
03 10:47 SE 11 16.09 Fair CLR 18 -6 19% 76.3 0.0
03 09:47 NW 19 16.09 Fair CLR 15 -4 27% 76.33 0.0
03 08:47 NW 19 16.09 Fair CLR 11 -5 32% 76.35 0.0
03 07:47 NW 19 16.09 Fair CLR 7 -6 39% 4 76.38 0.0
03 06:47 NW 19 16.09 Fair CLR 4 -6 48% 0 76.38 0.0
03 06:35 NW 20 G 28 16.09 Fair CLR 0 0 0% 76.35 0.0
03 06:15 NW 19 G 30 16.09 Fair CLR 0 0 0% 76.35 0.0
03 05:55 NW 17 16.09 Fair CLR 0 0 0% 76.35 0.0
03 05:35 NW 19 16.09 Fair CLR 0 0 0% 76.38 0.0
03 05:15 NW 22 16.09 Fair CLR 0 0 0% 76.38 0.0
03 04:55 NW 20 G 28 16.09 Fair CLR 0 0 0% 76.38 0.0
03 04:35 NW 19 16.09 Fair CLR 0 0 0% 76.38 0.0
03 04:15 NW 19 16.09 Fair CLR 0 0 0% 76.38 0.0
03 03:55 NW 19 16.09 Fair CLR 0 0 0% 76.38 0.0
03 03:35 NW 20 16.09 Fair CLR 0 0 0% 76.38 0.0
03 03:15 NW 17 16.09 Fair CLR 0 0 0% 76.38 0.0
03 02:55 NW 13 16.09 Fair CLR 0 0 0% 76.4 0.0
03 02:35 NW 20 G 26 16.09 Fair CLR 0 0 0% 76.4 0.0
03 02:15 NW 19 16.09 Fair CLR 0 0 0% 76.4 0.0
03 01:55 NW 19 16.09 Fair CLR 0 0 0% 76.4 0.0
03 01:35 NW 19 16.09 Fair CLR 0 0 0% 76.4 0.0
03 01:20 NW 15 16.09 Fair CLR 0 0 0% 76.4 0.0
03 00:55 NW 13 16.09 Fair CLR 0 0 0% 76.4 0.0
03 00:35 NW 17 16.09 Fair CLR 0 0 0% 76.4 0.0
03 00:15 NW 15 16.09 Fair CLR 0 0 0% 76.4 0.0
02 23:55 NW 13 16.09 Fair CLR 0 0 0% 76.38 0.0
02 23:35 NW 11 16.09 Fair CLR 0 0 0% 76.38 0.0
02 23:15 NW 11 16.09 Fair CLR 0 0 0% 76.38 0.0
02 22:47 NW 11 16.09 Fair CLR 11 -7 28% 76.38 0.0
02 21:47 NW 11 16.09 Fair CLR 13 -9 21% 76.35 0.0
02 20:47 Calm 16.09 Fair CLR 14 -7 23% 76.3 0.0
02 19:47 SE 6 16.09 Fair CLR 18 -7 18% 76.3 0.0
02 18:47 SW 7 16.09 Fair CLR 19 -13 10% 76.33 0.0
02 17:47 SE 13 16.09 Fair CLR 20 -11 11% 76.35 0.0
02 16:47 S 19 16.09 Fair CLR 20 -11 11% 76.38 0.0
02 15:47 SE 22 16.09 Fair CLR 20 -9 13% 76.45 0.0
02 14:47 SE 26 16.09 Fair CLR 20 -8 14% 76.5 0.0
02 13:47 SE 19 16.09 Fair CLR 18 -8 16% 76.56 0.0
02 12:47 S 7 16.09 Fair CLR 18 -7 18% 76.58 0.0
02 11:47 SE 15 16.09 Fair CLR 18 -7 18% 76.63 0.0
02 10:47 SE 11 16.09 Fair CLR 16 -7 20% 76.63 0.0
02 09:47 NW 19 16.09 Fair CLR 12 -4 33% 76.66 0.0
02 08:47 NW 19 16.09 Fair CLR 7 -4 46% 4 76.68 0.0
02 07:47 NW 19 16.09 Fair CLR 4 -4 56% 0 76.68 0.0
02 06:47 NW 26 16.09 Fair CLR 3 -6 52% -2 76.68 0.0
02 06:35 NW 15 16.09 Fair CLR 0 0 0% 76.68 0.0
02 06:15 NW 20 16.09 Fair CLR 0 0 0% 76.68 0.0
02 05:55 NW 20 16.09 Fair CLR 0 0 0% 76.68 0.0
02 05:35 NW 15 16.09 Fair CLR 0 0 0% 76.68 0.0
02 05:15 NW 17 16.09 Fair CLR 0 0 0% 76.68 0.0
02 04:55 NW 20 16.09 Fair CLR 0 0 0% 76.68 0.0
02 04:35 NW 15 16.09 Fair CLR 0 0 0% 76.68 0.0
02 04:15 NW 17 16.09 Fair CLR 0 0 0% 76.68 0.0
02 03:55 NW 17 G 26 16.09 Fair CLR 0 0 0% 76.68 0.0
02 03:35 NW 17 16.09 Fair CLR 0 0 0% 76.68 0.0
02 03:15 NW 15 16.09 Fair CLR 0 0 0% 76.68 0.0
02 02:55 NW 19 16.09 Fair CLR 0 0 0% 76.68 0.0
02 02:35 NW 13 16.09 Fair CLR 0 0 0% 76.71 0.0
02 02:15 NW 13 16.09 Fair CLR 0 0 0% 76.71 0.0
02 01:55 NW 13 16.09 Fair CLR 0 0 0% 76.71 0.0
02 01:35 NW 13 16.09 Fair CLR 0 0 0% 76.71 0.0
02 01:15 NW 13 16.09 Fair CLR 0 0 0% 76.71 0.0
02 00:55 NW 15 16.09 Fair CLR 0 0 0% 76.71 0.0
02 00:35 NW 15 16.09 Fair CLR 0 0 0% 76.71 0.0
02 00:15 NW 13 16.09 Fair CLR 0 0 0% 76.68 0.0
01 23:55 NW 13 16.09 Fair CLR 0 0 0% 76.68 0.0
01 23:35 NW 15 16.09 Fair CLR 0 0 0% 76.68 0.0
01 23:15 NW 15 16.09 Fair CLR 0 0 0% 76.66 0.0
01 22:47 NW 13 16.09 Fair CLR 8 -6 37% 6 76.68 0.0
01 21:47 W 9 16.09 Fair CLR 11 -6 30% 76.63 0.0
01 20:47 Calm 16.09 Fair CLR 14 -6 25% 76.56 0.0
01 19:47 SE 9 16.09 Fair CLR 17 -7 19% 76.53 0.0
01 18:47 SE 15 16.09 Fair CLR 18 -8 16% 76.53 0.0
Date Time (mdt) Wind (kph) Vis. (km) Weather Sky Cond. Air Dwpt Max. Min. Relative Humidity Wind Chill (°C) Heat Index (°C) altimeter (cm) sea level (mb) 1 hr 3 hr 6 hr
6 hour
Temperature (ºC) Pressure Precipitation (cm)